Regional Weather Roundup
Issued by NWS Pendleton, OR

Home | Current Version | Previous Version | Text Only | Print | Product List | Glossary On
Versions: 1 2 3 4 5 6 7 8 9 10 11 12 13 14 15 16 17 18 19 20 21 22 23 24 25 26 27 28 29 30 31 32 33 34 35 36 37 38 39 40 41 42 43 44 45 46 47 48 49 50
000
ASUS46 KPDT 180925
RWRPDT
PENDLETON REGIONAL WEATHER ROUNDUP
NATIONAL WEATHER SERVICE PENDLETON OREGON
200 AM PDT SAT APR 18 2015

NOTE: FAIR INDICATES FEW OR NO CLOUDS BELOW 12,000 FEET WITH NO
SIGNIFICANT WEATHER AND/OR OBSTRUCTIONS TO VISIBILITY.

# INDICATES UNOFFICIAL STATION AND DATA

WAZ520-181010-
EAST SLOPES OF WASHINGTON CASCADES

CITY            SKY/WX      TMP DP  RH  WIND    PRES   REMARKS
#BUMPING DAM    N/A         36  N/A N/A W8      N/A
#CLE ELUM HS    N/A         45  34  65  W5      30.19R
#CLE ELUM LAKE  N/A         44  33  65  E1      30.21R
#CLIFFDEL 2NW   N/A         41  32  70  N1      N/A
#GLENWOOD       N/A         34  30  85  CALM    30.20S
#MANASTASH CYN  N/A         49  21  33  SW1     30.16S
#NELSON         N/A         44  36  73  CALM    30.27S
#NELSON 3SW     N/A         43  33  67  CALM    30.45R
#NILE           N/A         47  34  60  CALM    29.50R
#RONALD 2NW     N/A         44  30  58  N1      30.12R
#SNOWDEN        N/A         38  25  59  CALM    N/A
#TEANAWAY 4NE   N/A         45  35  68  SW2     N/A
#TROUT LAKE 1NE N/A         40  34  79  CALM    30.19S
$$

WAZ521-181010-
SIMCOE HIGHLANDS

CITY            SKY/WX      TMP DP  RH  WIND    PRES   REMARKS
#BICKLETON HS   N/A         49  23  36  N10     N/A
#CENTERVILLE 4W N/A         48  36  63  W3      29.93R
#CENTERVILLE 1SWN/A         43  35  73  SW2     30.13S
#GOLDENDALE     N/A         48  38  68  E2      N/A
#GOLDENDALE 1NE N/A         41  28  59  N6      N/A
#GOODNOE HILLS  N/A         52  38  59  E3      N/A
#LYLE 6NE       N/A         51  35  54  CALM    30.15R
$$

WAZ026-181010-
KITTITAS VALLEY

CITY            SKY/WX      TMP DP  RH  WIND    PRES   REMARKS
ELLENSBURG AP   PTCLDY      53  32  45  NW25G33 30.19R
YTC-OPS AREA    CLEAR       46  30  53  W33G46  30.15R WCI 36
#ELLENSBURG CWU N/A         52  33  48  N9      30.14R
#ELLENSBURG 3NE N/A         51  35  54  N14G25  30.18R
#ELLENSBURG 1E  N/A         51  31  46  CALM    N/A
#KITTITAS 4N    N/A         49  29  46  N3      28.50R
#KITTITAS 3S    N/A         51  35  54  W7      30.19R
#THORP 6N       N/A         49  34  56  NW20G33 30.21S WCI 42
$$

WAZ027-181010-
YAKIMA VALLEY

CITY            SKY/WX      TMP DP  RH  WIND    PRES   REMARKS
SUNNYSIDE AP    CLEAR       53  32  45  W12     30.17R
YAKIMA AIRPORT  PTCLDY      56  32  40  NW7     30.19S
YAKIMA-VAGABOND PTCLDY      52  31  44  N5      30.19S
#DONALD 2NE     N/A         56  23  28  NW1     29.04R
#GRANDVIEW      N/A         56  31  38  W2      30.19R
#MABTON         N/A         55  34  45  SW6     30.18R
#MOXEE 2E       N/A         74   3   6  CALM    29.93
#NACHES 2SW     N/A         54  36  50  W15G32  30.19R
#OUTLOOK DOT    N/A         N/A N/A N/A N6      N/A
#SELAH 8E       N/A         42  29  60  NE2     N/A
#TERRACE HTS    N/A         54  33  45  CALM    30.14R
#WAPATO 4NE     N/A         56  23  28  NW1     29.04R
#WEST VALLEY    N/A         55  32  41  CALM    30.15S
#W YAKIMA       N/A         56  35  45  W3      30.17S
#WHITE SWAN 5E  N/A         46  36  68  N1      30.18S
#WILEY CITY 3W  N/A         40  14  34  CALM    30.19S
$$

WAZ028-181010-
LOWER COLUMBIA BASIN...WASHINGTON

CITY            SKY/WX      TMP DP  RH  WIND    PRES   REMARKS
PASCO           CLEAR       51  35  54  N6      30.18R
PROSSER AWOS    N/A         54  34  47  SW8     30.22R
RICHLAND AWOS   CLEAR       54  34  47  CALM    30.17R
#BASIN CITY 5SW N/A         49  37  63  CALM    30.17R
#BENTON CITY    N/A         53  34  48  W6      30.08R
#CONNELL 5N     N/A         46  34  63  CALM    30.15R
#CONNELL 5NW    N/A         51  35  54  NW3     30.11R
#ELTOPIA        N/A         50  36  58  CALM    30.13R
#ELTOPIA 6NW    N/A         52  35  52  W8      29.13R
#KAHLOTUS       N/A         55  35  47  N17     30.13S
#KENNEWICK 3S   N/A         48  40  74  CALM    30.17R
#PATERSON       N/A         54  36  50  E3      30.16R
#PROSSER        N/A         58  30  34  SW10    30.16R
#SAGEMOOR 2W    N/A         50  34  54  CALM    30.01R
#TOUCHET 2S     N/A         42  38  86  CALM    30.16R
#WEST PASCO     N/A         55  33  43  NW1     30.19R
$$

WAZ029-181010-
FOOTHILLS OF THE BLUES...WASHINGTON

CITY            SKY/WX      TMP DP  RH  WIND    PRES   REMARKS
WALLA WALLA AP  CLEAR       53  38  57  S9      30.18R
#CLYDE 6NW      N/A         52  35  52  SW1     30.15R
#DAYTON SCHOOL  N/A         50  33  52  NE2     30.18R
#LOWDEN 2SE     N/A         41  39  93  E1      30.14R
#PLEASANT VIEW 1N/A         54  34  47  W9      30.17R
#PRESCOTT       N/A         39  36  89  CALM    30.16R
#SUDBURY        N/A         38  N/A N/A CALM    N/A
#WHITMAN COLLEGEN/A         54  40  59  S3      30.21R
#WAITSBURG 5S   N/A         50  37  61  SE1     30.25R
#WAITSBURG 8N   N/A         38  18  44  N1      30.03R
#WALLA WALLA 5E N/A         48  38  68  CALM    N/A
#WALLA WALLA U  N/A         51  41  68  CALM    30.17R
#WHITMAN MISSIONN/A         43  39  86  CALM    30.18R
$$

WAZ030-181010-
BLUE MOUNTAINS...WASHINGTON

CITY            SKY/WX      TMP DP  RH  WIND    PRES   REMARKS
#DAYTON 8SE     N/A         40  36  85  SE2     29.97R
#DIXIE 5SE      N/A         51  30  44  SW5     30.12R
$$

ORZ009-041-WAZ024-181010-
COLUMBIA RIVER GORGE

CITY            SKY/WX      TMP DP  RH  WIND    PRES   REMARKS
HOOD RIVER AP   PTCLDY      50  39  66  CALM    30.21S
THE DALLES AP   PTCLDY      58  41  53  N16     30.18R
#ARLINGTON AIRPON/A         54  41  61  CALM    32.41S
#CELILO DOT     N/A         59  36  42  SW2     N/A
#LYLE           N/A         57  43  59  E1      30.20R
#MOSIER 1S      N/A         52  36  54  N2      30.18S
#MURDOCK        N/A         61  43  51  NW18    30.19R
#RUFUS DOT      N/A         61  36  39  W8      N/A

$$

ORZ510-181010-
NORTH CENTRAL OREGON

CITY            SKY/WX      TMP DP  RH  WIND    PRES   REMARKS
#CHENOWITH 1W   N/A         51  38  61  W23     N/A
#COW CYN RST AREN/A         49  49  100 SE2     N/A
#DUFUR 9E       N/A         55  35  47  SW7     30.21S
#GRASS VALLEY 1SN/A         46  33  60  S7      30.19R
#KENT DOT       N/A         43  31  62  W8      N/A
#MAUPIN SCHOOL  N/A         50  38  63  W2      30.21S
#MORO SCHOOL    N/A         54  41  61  W7      30.19S
#SHANIKO 5WSW   N/A         47  29  49  S3      N/A
#SHANIKO 4NW    N/A         49  32  52  W2      30.22R
#TYGH VALLEY 2NEN/A         44  33  65  CALM    30.19S
#WAPANITIA AIRPON/A         46  37  71  CALM    30.20S
#WASCO DOT      N/A         49  38  66  W1      N/A
#WASCO 5NE      N/A         48  38  68  CALM    30.16S
$$

ORZ511-181010-
CENTRAL OREGON

CITY            SKY/WX      TMP DP  RH  WIND    PRES   REMARKS
BEND AIRPORT    CLEAR       37  32  82  CALM    30.22F
MADRAS AIRPORT  CLEAR       43  36  76  CALM    30.23S
PRINEVILLE AP   CLEAR       34  30  85  CALM    30.22S
REDMOND AIRPORT CLEAR       33  28  82  S3      30.22S
#BEND 6E        N/A         41  31  67  CALM    30.11R
#BEND 1SW       N/A         37  32  82  E1      N/A
#BEND-AWBREY    N/A         45  35  68  CALM    30.17S
#BEND-KIM LN    N/A         43  36  76  CALM    30.20S
#CROOKED RVR RANN/A         44  36  73  CALM    30.18F
#CULVER         N/A         46  36  68  CALM    30.18F
#LAKE BILLY CHINN/A         46  27  47  N1      30.27S
#POWELL BUTTE 3EN/A         47  35  63  SW5     N/A
#POWELL BUTTE   N/A         46  32  58  SW1     29.83F
#PRINEVILLE 3N  N/A         40  33  76  E5      30.15S
#WARM SPRINGS   N/A         50  37  61  CALM    30.18S

$$


ORZ509-181010-
EAST SLOPES OF OREGON CASCADES

CITY            SKY/WX      TMP DP  RH  WIND    PRES   REMARKS
#BLUE BOX PASS  N/A         39  -11 11  CALM    N/A
#CAMP SHERMAN   N/A         34  30  85  CALM    30.19S
#LA PINE 4NW    N/A         33  28  82  CALM    30.23R
#SISTERS AIRPOR N/A         36  35  96  CALM    30.17S
#SISTERS ODOT   N/A         36  N/A N/A CALM    N/A
#SISTERS 3N     N/A         34  24  66  CALM    30.22S
#SUNRIVER       N/A         37  32  82  CALM    30.08S
#TUMALO 3W      N/A         43  35  73  S3      30.05R
#WANOGA BUTTE D N/A         42  19  39  CALM    N/A

$$

ORZ044-181010-
LOWER COLUMBIA BASIN...OREGON

CITY            SKY/WX      TMP DP  RH  WIND    PRES   REMARKS
HERMISTON       CLEAR       45  37  73  S3      30.17R
#BOARDMAN 8SW   N/A         57  40  53  W1      30.17R
#ECHO 8SW       N/A         52  33  48  SW2     30.19R
#IONE SCHOOL    N/A         48  33  56  CALM    30.16R
#IRRIGON 4NW    N/A         51  38  61  E2      N/A
#UMATILLA SCHOOLN/A         46  44  93  S1      30.22R
#UMATILLA       N/A         68  38  33  CALM    30.09R
$$

ORZ507-181010-
NORTHERN FOOTHILLS OF THE BLUES

CITY            SKY/WX      TMP DP  RH  WIND    PRES   REMARKS
PENDLETON AIRPT CLEAR       46  37  71  SE7     30.18R
#ADAMS 3WNW     N/A         38  33  82  NE1     30.19S
#ATHENA         N/A         44  37  76  CALM    30.21R
#CAYUSE         N/A         51  40  66  E7      30.17R
#HELIX SCHOOL   N/A         41  34  76  CALM    30.18R
#HELIX 3N       N/A         48  33  56  N2      30.15R
#HOLDMAN 6E     N/A         50  34  54  CALM    29.98R
#M-F FERNDALE   N/A         48  36  63  CALM    30.16R
#M-F GROVE ELEM N/A         50  36  58  CALM    30.16R
#M-FREEWATER 5SEN/A         49  38  66  CALM    30.18R
#PENDLETON DNTN N/A         46  31  56  CALM    30.16S
#PDT AQUATIC CTRN/A         46  29  51  CALM    30.18S
#PENDLETON 5NE  N/A         42  37  82  CALM    30.15R
#PDT SUNRIDGE   N/A         41  37  86  CALM    30.20R
#PENDLETON 7NW  N/A         45  37  73  CALM    30.16R
#PILOT ROCK     N/A         47  36  65  S1      30.20R
#TUTUILLA       N/A         40  36  85  S1      30.20R
#UMAPINE 2E     N/A         43  38  82  CALM    30.15R
#WESTON SCHOOL  N/A         45  34  65  SW1     30.17R

$$

ORZ508-181010-
SOUTHERN FOOTHILLS OF THE BLUES

CITY            SKY/WX      TMP DP  RH  WIND    PRES   REMARKS
LEXINGTON       CLEAR       46  36  68  E10     30.21S
#AJAX           N/A         54  31  41  CALM    30.12S
#CONDON SCHOOL  N/A         50  37  61  CALM    30.15S
#CONDON 5W      N/A         48  33  56  W6      30.18S
#FOSSIL SCHOOL  N/A         41  36  82  CALM    30.17S
#HEPPNER EOC    N/A         48  38  68  E2      30.12S
#HEPPNER 4NE    N/A         49  31  50  CALM    30.18R
#LEXINGTON 2SE  N/A         46  37  71  CALM    30.17S
#MIKKALO        N/A         46  33  60  W5      30.18R
#OLEX 4N        N/A         50  37  61  SW6     30.17R
#RUGGS 5NE      N/A         47  30  51  CALM    30.36S
#RUGGS 2SW      N/A         47  37  68  S6      30.20S

$$

ORZ502-503-181010-
BLUE MOUNTAINS

CITY            SKY/WX      TMP DP  RH  WIND    PRES   REMARKS
MEACHAM         CLEAR       31  28  88  CALM    30.21S
#BATTLE MTN DOT N/A         46  40  79  NW1     N/A
#HARDMAN 10S    N/A         44  33  65  NW1     30.27R
#HEPPNER 15SE   N/A         40  35  82  CALM    30.14S
#LADD CYN SMT   N/A         42  28  57  NW1     N/A
#LADD CREEK ODOTN/A         44  33  65  CALM    N/A
#LONG CREEK HS  N/A         41  38  89  CALM    30.16S
#N POWDER DOT   N/A         44  32  62  NE3     N/A
#PIKES PEAK     N/A         51  32  48  W5      27.99S
#TOLLGATE       N/A         40  32  73  CALM    30.11S
#TROY SCHOOL    N/A         43  38  82  CALM    30.02R
#UKIAH          N/A         32  30  92  CALM    30.27R
#WESTON 4E      N/A         47  33  58  CALM    30.11R
$$

ORZ505-181010-
JOHN DAY BASIN

CITY            SKY/WX      TMP DP  RH  WIND    PRES   REMARKS
JOHN DAY        CLEAR       45  34  65  E7      30.20S
#JOHN DAY KJDY  N/A         42  36  79  CALM    30.15F
#DAYVILLE SCHOOLN/A         47  31  53  CALM    30.15R
#MITCHELL       N/A         42  36  79  CALM    30.34R
#MITCHELL 8NW   N/A         51  34  52  CALM    30.11S
#MONUMENT HS    N/A         42  35  76  CALM    30.19R
#MT. VERNON 5SE N/A         47  33  58  CALM    30.15R
#WINLOCK        N/A         49  35  58  CALM    30.26S
$$

ORZ506-181010-
OCHOCO AND JOHN DAY HIGHLANDS

CITY            SKY/WX      TMP DP  RH  WIND    PRES   REMARKS
#BUCK CREEK DOT N/A         49  49  100 NW5     N/A
#HORSE RIDGE DO N/A         31  23  72  SE1     N/A
#PAULINA SCHOOL N/A         67  22  18  CALM    30.14S
#PINE MTN OBS   N/A         41  28  59  NW9     N/A
#PRAIRIE CITY   N/A         33  28  82  CALM    30.34R
#SENECA         N/A         38  N/A N/A CALM    N/A
#SENECA 9NW     N/A         34  28  78  CALM    30.15F
$$

ORZ049-181010-
GRANDE RONDE VALLEY

CITY            SKY/WX      TMP DP  RH  WIND    PRES   REMARKS
LA GRANDE       CLEAR       48  30  49  W14     30.16S WCI 42
#COVE           N/A         43  35  73  N2      30.17R
#COVE SCHOOL    N/A         44  33  65  E3      30.14R
#ELGIN 3N       N/A         36  28  72  CALM    30.15R
#ELGIN 1E       N/A         39  32  76  CALM    N/A
#IMBLER SCHOOL  N/A         56  34  43  N3      30.13R
#ISLAND CITY 4N N/A         46  43  89  CALM    30.25S
#LADD CYN DOT   N/A         49  32  52  SE6     N/A
#LA GRANDE ELEM N/A         54  36  50  NW5     30.20R
#UNION 1S       N/A         39  32  76  CALM    30.07R
$$

ORZ050-181010-
WALLOWA COUNTY

CITY            SKY/WX      TMP DP  RH  WIND    PRES   REMARKS
JOSEPH AIRPORT  CLEAR       37  30  75  S3      30.20R
#ENTERPRISE HS  N/A         35  29  78  CALM    30.19R
#IMNAHA SCHOOL  N/A         47  37  68  S2      30.15R
#IMNAHA 10S     N/A         46  33  60  SW5     30.15R
#JOSEPH 3N      N/A         31  23  72  NE1     30.19R
#JOSEPH 3W      N/A         45  29  53  CALM    30.02R
#LOSTINE        N/A         35  29  78  CALM    29.97R
#MT HOWARD 8000 N/A         35  24  64  NW6     30.24F
#PROMISE 1S     N/A         44  31  60  CALM    30.21R
#SHEEP RDG 7000 N/A         40  25  55  CALM    30.11F
#WALLOWA SCHOOL N/A         36  30  79  CALM    31.12R



$$



USA.gov is the U.S. government's official web portal to all federal, state and local government web resources and services.